Weather History for KHWY - January, 2013

Change the Weather History Date:

Friday, January 4, 2013

  Actual Average (KHEF) Record (KHEF)
Temperature  
Mean Temperature 32 °F -  
Max Temperature 47 °F 43 °F - (-1)
Min Temperature 17 °F 24 °F - (-1)
Degree Days  
Heating Degree Days 33    
Moisture  
Dew Point 25 °F    
Average Humidity 74    
Maximum Humidity 100    
Minimum Humidity 46    
Precipitation  
Precipitation 0.00 in - - ()
Sea Level Pressure  
Sea Level Pressure 30.17 in    
Wind  
Wind Speed 2 mph (WSW)    
Max Wind Speed 9 mph    
Max Gust Speed -    
Visibility 10 miles    
Events      
Averages and records for this station are not official NWS values.
T = Trace of Precipitation, MM = Missing Value Source: NWS Daily Summary

Daily Weather History Graph

Daily Weather History Graph

Search for Another Location

Airport or City:

Trip Planner

Search our weather history database for the weather conditions in past years. The results will help you decide how hot, cold, wet, or windy it might be!

Date:

Astronomy

Jan. 04, 2013 Rise Set
Actual Time 7:28 AM EST 5:03 PM EST
Civil Twilight 6:59 AM EST 5:32 PM EST
Nautical Twilight 6:26 AM EST 6:05 PM EST
Astronomical Twilight 5:54 AM EST 6:38 PM EST
Moon No Moon Rise 11:15 AM EST (1/4)
Length of Visible Light 10h 33m
Length of Day
9h 34m
Waning Gibbous, 55% of the Moon is Illuminated
Jan 4
Waning Gibbous
Jan 4
Last Quarter
Jan 11
New
Jan 18
First Quarter
Jan 26
Full

Hourly Weather History & Observations

Time (EST) Temp. Windchill Dew Point Humidity Pressure Visibility Wind Dir Wind Speed Gust Speed Precip Events Conditions
12:15 AM 21.7 °F - 21.4 °F 99% 30.17 in 10.0 mi Calm Calm - N/A   Clear
12:35 AM 21.9 °F 17.2 °F 21.4 °F 98% 30.16 in 10.0 mi NW 3.5 mph - N/A   Clear
12:55 AM 21.9 °F 15.7 °F 21.9 °F 100% 30.17 in 10.0 mi SE 4.6 mph - N/A   Clear
1:15 AM 22.3 °F - 22.3 °F 100% 30.17 in 10.0 mi Calm Calm - N/A   Clear
1:35 AM 20.8 °F - 20.8 °F 100% 30.17 in 10.0 mi Calm Calm - N/A   Clear
1:55 AM 21.4 °F - 21.4 °F 100% 30.17 in 10.0 mi Calm Calm - N/A   Clear
2:15 AM 20.1 °F - 20.1 °F 100% 30.18 in 10.0 mi Calm Calm - N/A   Clear
2:35 AM 20.5 °F - 20.5 °F 100% 30.18 in 10.0 mi Calm Calm - N/A   Clear
2:55 AM 21.9 °F - 21.9 °F 100% 30.20 in 10.0 mi Calm Calm - N/A   Clear
3:15 AM 20.8 °F - 20.8 °F 100% 30.20 in 10.0 mi Calm Calm - N/A   Clear
3:55 AM 19.4 °F - 19.4 °F 100% 30.20 in 10.0 mi Calm Calm - N/A   Clear
4:15 AM 20.1 °F 15.2 °F 20.1 °F 100% 30.20 in 10.0 mi East 3.5 mph - N/A   Clear
6:55 AM 18.7 °F - 18.7 °F 100% 30.21 in 10.0 mi Calm Calm - N/A   Clear
7:15 AM 18.7 °F - 18.7 °F 100% 30.21 in 10.0 mi Calm Calm - N/A   Clear
7:35 AM 17.2 °F - 17.2 °F 100% 30.21 in 10.0 mi Calm Calm - N/A   Clear
7:55 AM 18.5 °F - 18.5 °F 100% 30.21 in 10.0 mi Calm Calm - N/A   Clear
8:15 AM 21.0 °F - 21.0 °F 100% 30.21 in 10.0 mi Calm Calm - N/A   Clear
8:35 AM 23.4 °F - 23.4 °F 100% 30.21 in 10.0 mi Calm Calm - N/A   Clear
8:55 AM 27.1 °F - 26.2 °F 96% 30.20 in 10.0 mi Calm Calm - N/A   Clear
9:15 AM 30.7 °F - 28.6 °F 92% 30.20 in 10.0 mi Calm Calm - N/A   Clear
9:35 AM 32.4 °F 29.1 °F 29.3 °F 88% 30.21 in 10.0 mi SW 3.5 mph - N/A   Clear
9:55 AM 34.9 °F - 29.7 °F 81% 30.21 in 10.0 mi Calm Calm - N/A   Clear
10:15 AM 37.8 °F - 30.6 °F 75% 30.22 in 10.0 mi Calm Calm - N/A   Clear
10:35 AM 39.0 °F - 29.8 °F 70% 30.22 in 10.0 mi Calm Calm - N/A   Clear
10:55 AM 40.3 °F 38.2 °F 28.9 °F 64% 30.21 in 10.0 mi SW 3.5 mph - N/A   Clear
11:15 AM 41.2 °F 35.5 °F 30.2 °F 65% 30.20 in 10.0 mi SSW 9.2 mph - N/A   Clear
11:35 AM 41.7 °F 39.8 °F 28.9 °F 61% 30.19 in 10.0 mi SSW 3.5 mph - N/A   Clear
11:55 AM 43.3 °F 39.9 °F 28.6 °F 56% 30.18 in 10.0 mi WSW 5.8 mph - N/A   Clear
12:15 PM 44.1 °F 40.1 °F 29.1 °F 56% 30.18 in 10.0 mi SW 6.9 mph - N/A   Clear
12:35 PM 44.4 °F 40.0 °F 28.6 °F 54% 30.16 in 10.0 mi West 8.1 mph - N/A   Clear
12:55 PM 44.2 °F 39.7 °F 27.3 °F 51% 30.14 in 10.0 mi West 8.1 mph - N/A   Clear
1:15 PM 45.3 °F 41.6 °F 28.0 °F 51% 30.13 in 10.0 mi West 6.9 mph - N/A   Clear
1:55 PM 45.9 °F 42.3 °F 27.5 °F 49% 30.13 in 10.0 mi West 6.9 mph - N/A   Clear
2:15 PM 46.4 °F 41.9 °F 28.2 °F 49% 30.12 in 10.0 mi WSW 9.2 mph - N/A   Clear
2:35 PM 46.4 °F 42.4 °F 28.2 °F 49% 30.12 in 10.0 mi SW 8.1 mph - N/A   Clear
2:55 PM 47.3 °F - 28.8 °F 49% 30.11 in 10.0 mi Calm Calm - N/A   Clear
3:15 PM 47.3 °F - 27.3 °F 46% 30.11 in 10.0 mi SW 4.6 mph - N/A   Clear
3:35 PM 45.1 °F 43.7 °F 27.7 °F 50% 30.11 in 10.0 mi WNW 3.5 mph - N/A   Clear
3:55 PM 44.1 °F 42.5 °F 27.1 °F 51% 30.12 in 10.0 mi West 3.5 mph - N/A   Clear
4:15 PM 43.0 °F - 26.8 °F 53% 30.12 in 10.0 mi Calm Calm - N/A   Clear
4:35 PM 41.7 °F - 27.9 °F 58% 30.11 in 10.0 mi Calm Calm - N/A   Clear
4:55 PM 41.0 °F 39.0 °F 27.5 °F 59% 30.11 in 10.0 mi WSW 3.5 mph - N/A   Clear
5:15 PM 39.9 °F 35.8 °F 27.7 °F 62% 30.12 in 10.0 mi ESE 5.8 mph - N/A   Clear
5:35 PM 39.0 °F 36.8 °F 27.9 °F 64% 30.12 in 10.0 mi WNW 3.5 mph - N/A   Clear
5:55 PM 39.6 °F 35.4 °F 27.5 °F 62% 30.13 in 10.0 mi WNW 5.8 mph - N/A   Clear
6:15 PM 39.2 °F 35.0 °F 26.6 °F 61% 30.13 in 10.0 mi WNW 5.8 mph - N/A   Clear
6:35 PM 38.7 °F 35.2 °F 25.7 °F 60% 30.13 in 10.0 mi WNW 4.6 mph - N/A   Clear
6:55 PM 37.0 °F - 25.7 °F 64% 30.13 in 10.0 mi Calm Calm - N/A   Clear
7:15 PM 32.0 °F 28.7 °F 25.5 °F 77% 30.15 in 10.0 mi West 3.5 mph - N/A   Clear
7:55 PM 34.7 °F - 24.6 °F 67% 30.16 in 10.0 mi Calm Calm - N/A   Clear
8:15 PM 36.0 °F - 24.1 °F 62% 30.16 in 10.0 mi Calm Calm - N/A   Clear
8:35 PM 32.4 °F - 24.4 °F 73% 30.16 in 10.0 mi Calm Calm - N/A   Clear
8:55 PM 34.5 °F - 23.7 °F 65% 30.17 in 10.0 mi Calm Calm - N/A   Clear
9:15 PM 34.0 °F - 23.7 °F 66% 30.18 in 10.0 mi Calm Calm - N/A   Clear
9:35 PM 33.8 °F 30.8 °F 23.7 °F 67% 30.18 in 10.0 mi WSW 3.5 mph - N/A   Clear
9:55 PM 36.7 °F 34.1 °F 24.4 °F 61% 30.18 in 10.0 mi West 3.5 mph - N/A   Clear
10:15 PM 36.7 °F 34.1 °F 23.7 °F 59% 30.18 in 10.0 mi West 3.5 mph - N/A   Clear
10:35 PM 34.0 °F 31.0 °F 23.7 °F 66% 30.17 in 10.0 mi WSW 3.5 mph - N/A   Clear
10:55 PM 34.2 °F 31.2 °F 23.7 °F 66% 30.18 in 10.0 mi SW 3.5 mph - N/A   Clear
11:15 PM 31.3 °F - 23.4 °F 72% 30.18 in 10.0 mi Calm Calm - N/A   Clear
11:35 PM 30.4 °F - 23.0 °F 74% 30.17 in 10.0 mi Calm Calm - N/A   Clear
11:55 PM 26.4 °F - 22.6 °F 86% 30.17 in 10.0 mi Calm Calm - N/A   Clear